Home   Weather   Shantou   Past weeks
Flag for China

Past Weather in Shantou, Guangdong, China — Yesterday and Last 2 Weeks

Now
72 °F

Fog.


Feels Like: 65 °F
Forecast: 82 / 73 °F
Wind: 6 mph from East

Location: Shantou Airport

Current Time: May 23, 2019 at 11:13:21 pm

Latest Report: May 23, 2019 at 10:00 pm


Visibility: 2 mi

Pressure: 29.92 "Hg

Humidity: 100%

Dew Point: 72 °F

Location of ShantouLocation

Past Weather in Shantou — Graph

°F

Shantou Temperature Yesterday

Maximum temperature yesterday: 81 °F (at 1:00 pm)
Minimum temperature yesterday: 72 °F (at 4:00 am)
Average temperature yesterday: 76 °F

High & Low Weather Summary for the Past Weeks

 TemperatureHumidityPressure
High95 °F (May 17, 12:00 pm)100% (May 8, 10:00 pm)29.95 "Hg (May 8, 10:00 pm)
Low66 °F (May 8, 10:00 pm)40% (May 12, 1:00 pm)29.59 "Hg (May 17, 2:00 pm)
Average79 °F83%29.80 "Hg
* Reported May 8 10:00 pm — May 23 10:00 pm, Shantou. Weather by CustomWeather, © 2019

Note: Actual official high and low records may vary slightly from our data, if they occured in-between our weather recording intervals... More about our weather records

Advertising

Shantou Weather History for the Previous 24 Hours

Scroll right to see more
 ConditionsComfort  
Time TempWeatherWind HumidityBarometerVisibility
10:00 pm
Thu, May 23
72 °FFog.6 mph100%29.92 "Hg2 mi
9:00 pm72 °FFog.3 mph100%29.92 "Hg3 mi
8:00 pm72 °FOvercast.3 mph100%29.89 "Hg4 mi
7:00 pm72 °FLight rain. Fog.3 mph100%29.86 "Hg3 mi
6:00 pm73 °FPartly sunny.6 mph94%29.86 "Hg5 mi
5:00 pm73 °FPartly sunny.8 mph94%29.86 "Hg5 mi
4:00 pm75 °FPartly sunny.6 mph94%29.86 "Hg4 mi
3:00 pm75 °FSprinkles. Partly sunny.6 mph89%29.86 "Hg4 mi
2:00 pm75 °FSprinkles. Fog.6 mph94%29.86 "Hg3 mi
1:00 pm77 °FPartly sunny.6 mph79%29.89 "Hg5 mi
12:00 pm77 °FPartly sunny.3 mph79%29.89 "HgN/A
11:00 am77 °FPartly sunny.3 mph74%29.89 "HgN/A
10:00 am75 °FPartly sunny.6 mph78%29.89 "HgN/A
9:00 am75 °FPartly sunny.3 mph78%29.89 "HgN/A
8:00 am75 °FBroken clouds.3 mph78%29.89 "HgN/A
7:00 am73 °FBroken clouds.3 mph83%29.86 "HgN/A
6:00 am73 °FPartly sunny.3 mph83%29.86 "Hg4 mi
5:00 am73 °FPassing clouds.6 mph89%29.86 "HgN/A
4:00 am73 °FPassing clouds.6 mph89%29.83 "HgN/A
3:00 am73 °FPassing clouds.3 mph83%29.86 "HgN/A
2:00 am73 °FPassing clouds.3 mph83%29.86 "HgN/A
1:00 am73 °FPassing clouds.3 mph83%29.86 "HgN/A
12:00 am73 °FPassing clouds.6 mph89%29.86 "HgN/A
11:00 pm
Wed, May 22
75 °FPassing clouds.3 mph83%29.86 "HgN/A
Weather by CustomWeather, © 2019

See weather overview